Regional Weather Roundup
Issued by NWS Jackson, KY

Home | Current Version | Previous Version | Text Only | Print | Product List | Glossary Off
Versions: 1 2 3 4 5 6 7 8 9 10 11 12 13 14 15 16 17 18 19 20 21 22 23 24 25 26 27

000
ASUS43 KJKL 220510
RWRJKL

EAST KENTUCKY HOURLY WEATHER ROUNDUP
NATIONAL WEATHER SERVICE JACKSON KY
100 AM EDT THU JUN 22 2017

NOTE: "FAIR" INDICATES FEW OR NO CLOUDS BELOW 12,000 FEET WITH
NO SIGNIFICANT WEATHER AND/OR OBSTRUCTIONS TO VISIBILITY.

* THESE REPORTS ARE NOT UNDER NWS QUALITY CONTROL AND MAY NOT
  REPORT WEATHER SUCH AS PRECIPITATION AND FOG.

KYZ079-080-083-085-087-088-110-112-115-119-120-220600
...EASTERN KENTUCKY...

CITY           SKY/WX    TMP DP  RH WIND       PRES   REMARKS
JACKSON        CLOUDY    72  64  76 CALM      30.08S
LONDON         MOCLDY    70  64  81 CALM      30.09S
SOMERSET*      PTCLDY    72  66  83 CALM      30.08S
MONTICELLO*    MOCLDY    70  68  93 W9        30.09S
WILLIAMSBURG*  MOCLDY    66  66 100 CALM      30.09S
MIDDLESBORO*   CLOUDY    68  67  96 CALM      30.11S
HARLAN APT*    CLOUDY    64  63  94 CALM      30.12F
PIKE CO APT*     N/A     71  64  76 S3        30.09S
BIG SANDY APT* PTCLDY    74  64  71 SW3       30.08S
MOREHEAD APT*  CLOUDY    73  63  68 SW7       30.06S
$$

KYZ035-036-041-042-044-050-067-078-099-220600
...CENTRAL KENTUCKY...

CITY           SKY/WX    TMP DP  RH WIND       PRES   REMARKS
MT STERLING*   CLOUDY    70  63  78 SW5       30.07R
FLEMING/MASON* CLOUDY    73  65  76 S6        30.04S
DANVILLE*      CLOUDY    70  64  83 SW5       30.06F
LEXINGTON      PTCLDY    73  64  73 S5        30.05R
FRANKFORT      CLOUDY    73  64  73 SW3       30.02R
LOUISVILLE     CLOUDY    78  67  68 S7        30.00S
LEBANON*         N/A     73  66  78 S7        30.04S
GLASGOW*         N/A     73  67  80 S5        30.04S
BOWLING GREEN  MOCLDY    76  70  82 S6        30.03R
$$

KYZ091>093-OHZ055-061-077-WVZ005-015-034-035-042-220600
...SOUTHERN OHIO/WEST VIRGINIA...

CITY           SKY/WX    TMP DP  RH WIND       PRES   REMARKS
COVINGTON      CLOUDY    74  67  78 SW7       30.00R
COLUMBUS       PTCLDY    75  69  81 CALM      29.97R
DAYTON         CLOUDY    74  67  78 SW8       30.00R
WILMINGTON     PTCLDY    74  69  85 SW9       30.00R
HUNTINGTON     PTCLDY    75  64  68 S7        30.03S
CHARLESTON     PTCLDY    75  61  60 SW6       30.04S
PINEVILLE*     PTCLDY    65  64  96 MISG      30.17R FOG
BECKLEY        CLEAR     68  61  78 SW6       30.15R
BLUEFIELD      PTCLDY    64  58  80 SW3       30.18R
LOGAN CO APT*    N/A     72  63  73 CALM      30.10R
$$

VAZ002-007-008-TNZ017-027-036-066-071-220600
...SOUTHWEST VIRGINIA/EAST TENNESSEE...

CITY           SKY/WX    TMP DP  RH WIND       PRES   REMARKS
WISE*          CLOUDY    68  61  77 SW8       30.18S
JONESVILLE*      N/A     66  64  94 CALM      30.14S
ABINGDON*      CLOUDY    67  64  89 CALM      30.16S
BRISTOL        CLOUDY    68  64  87 CALM      30.13R
MORRISTOWN*    CLEAR     72  68  88 SW3       30.11R
SEVIERVILLE*   CLEAR     70  66  88 CALM      30.10S
KNOXVILLE      CLOUDY    73  67  81 SW6       30.10R
LAFOLLETTE*      N/A     70  68  94 CALM      30.13S
OAK RIDGE      CLOUDY    75  67  76 SW5       30.11S
CROSSVILLE     CLOUDY    70  66  87 S5        30.14S
NASHVILLE      CLOUDY    76  68  76 S8        30.03F
$$

...KEY TO REMARKS...
VSB - VISIBILITY IN MILES
WCI - WIND CHILL INDEX
HX  - HEAT INDEX

$$




USA.gov is the U.S. government's official web portal to all federal, state and local government web resources and services.